• In Russia
  • List of Countries
  • For 7 days
  • Water Temperature
  • Satellite Maps
  • Weather Map
  • Weather Widgets
  • user-avatar
    Login

    Hourly Weather La Rioja

    Today, 23 February, Friday

    Time Temperature Precipitation Wind Pressure Humidity
    00:00 +27°C° 0.1 mm 2 mps 715 mmHg 54%
    01:00 +26°C° 0.1 mm 2 mps 714 mmHg 55%
    02:00 +26°C° 0 mm 2 mps 714 mmHg 57%
    03:00 +25°C° 0 mm 2 mps 714 mmHg 58%
    04:00 +25°C° 0 mm 2 mps 714 mmHg 59%
    05:00 +25°C° 0 mm 2 mps 713 mmHg 60%
    06:00 +25°C° 0.5 mm 3 mps 714 mmHg 57%
    07:00 +26°C° 0.5 mm 3 mps 714 mmHg 55%
    08:00 +26°C° 0.5 mm 3 mps 714 mmHg 52%
    09:00 +28°C° 0.2 mm 3 mps 714 mmHg 49%
    10:00 +29°C° 0.2 mm 3 mps 714 mmHg 45%
    11:00 +30°C° 0.2 mm 3 mps 714 mmHg 41%
    12:00 +33°C° 0 mm 3 mps 713 mmHg 39%
    13:00 +34°C° 0 mm 4 mps 713 mmHg 36%
    14:00 +35°C° 0 mm 4 mps 712 mmHg 33%
    15:00 +35°C° 0.4 mm 5 mps 712 mmHg 33%
    16:00 +35°C° 0.4 mm 6 mps 712 mmHg 32%
    17:00 +35°C° 0.4 mm 6 mps 711 mmHg 32%
    18:00 +34°C° 0.1 mm 5 mps 712 mmHg 35%
    19:00 +32°C° 0.1 mm 5 mps 712 mmHg 39%
    20:00 +30°C° 0.1 mm 4 mps 713 mmHg 42%
    21:00 +29°C° 0.1 mm 3 mps 713 mmHg 45%
    22:00 +28°C° 0.1 mm 3 mps 714 mmHg 47%
    23:00 +27°C° 0.1 mm 2 mps 714 mmHg 50%

    Tomorrow, 24 February, Saturday

    Time Temperature Precipitation Wind Pressure Humidity
    00:00 +27°C° 0 mm 2 mps 715 mmHg 51%
    01:00 +26°C° 0 mm 2 mps 715 mmHg 52%
    02:00 +26°C° 0 mm 2 mps 715 mmHg 54%
    03:00 +25°C° 0.1 mm 2 mps 715 mmHg 54%
    04:00 +25°C° 0.1 mm 2 mps 716 mmHg 55%
    05:00 +25°C° 0.1 mm 3 mps 716 mmHg 55%
    06:00 +25°C° 0 mm 3 mps 716 mmHg 53%
    07:00 +26°C° 0 mm 3 mps 717 mmHg 51%
    08:00 +26°C° 0 mm 3 mps 717 mmHg 49%
    09:00 +28°C° 0 mm 3 mps 717 mmHg 47%
    10:00 +29°C° 0 mm 3 mps 717 mmHg 44%
    11:00 +30°C° 0 mm 3 mps 717 mmHg 41%
    12:00 +31°C° 0 mm 3 mps 716 mmHg 39%
    13:00 +33°C° 0 mm 3 mps 716 mmHg 38%
    14:00 +33°C° 0 mm 3 mps 715 mmHg 36%
    15:00 +33°C° 0.1 mm 3 mps 715 mmHg 36%
    16:00 +34°C° 0.1 mm 4 mps 714 mmHg 36%
    17:00 +34°C° 0.1 mm 4 mps 714 mmHg 35%
    18:00 +33°C° 0.2 mm 4 mps 715 mmHg 38%
    19:00 +31°C° 0.2 mm 3 mps 715 mmHg 40%
    20:00 +30°C° 0.2 mm 3 mps 716 mmHg 42%
    21:00 +29°C° 0.1 mm 3 mps 716 mmHg 44%
    22:00 +28°C° 0.1 mm 2 mps 717 mmHg 46%
    23:00 +28°C° 0.1 mm 2 mps 717 mmHg 49%

    Day after tomorrow, 25 February, Sunday

    Time Temperature Precipitation Wind Pressure Humidity
    00:00 +27°C° 0.3 mm 2 mps 717 mmHg 51%
    01:00 +26°C° 0.3 mm 2 mps 717 mmHg 53%
    02:00 +26°C° 0.3 mm 2 mps 716 mmHg 56%
    03:00 +25°C° 0 mm 1 mps 716 mmHg 57%
    04:00 +25°C° 0 mm 1 mps 716 mmHg 59%
    05:00 +24°C° 0 mm 1 mps 716 mmHg 61%
    06:00 +25°C° 0 mm 1 mps 716 mmHg 58%
    07:00 +26°C° 0 mm 1 mps 717 mmHg 54%
    08:00 +27°C° 0 mm 1 mps 717 mmHg 51%
    09:00 +28°C° 0.3 mm 1 mps 717 mmHg 48%
    10:00 +29°C° 0.3 mm 2 mps 717 mmHg 45%
    11:00 +31°C° 0.3 mm 2 mps 717 mmHg 42%
    12:00 +31°C° 0.8 mm 3 mps 716 mmHg 40%
    13:00 +33°C° 0.8 mm 3 mps 716 mmHg 38%
    14:00 +34°C° 0.8 mm 4 mps 715 mmHg 37%
    15:00 +34°C° 0.5 mm 4 mps 715 mmHg 37%
    16:00 +34°C° 0.5 mm 4 mps 714 mmHg 37%
    17:00 +34°C° 0.5 mm 4 mps 714 mmHg 37%
    18:00 +33°C° 0.4 mm 4 mps 714 mmHg 39%
    19:00 +31°C° 0.4 mm 3 mps 715 mmHg 42%
    20:00 +30°C° 0.4 mm 3 mps 715 mmHg 45%
    21:00 +29°C° 0.3 mm 2 mps 715 mmHg 49%
    22:00 +28°C° 0.3 mm 2 mps 716 mmHg 52%
    23:00 +27°C° 0.3 mm 2 mps 716 mmHg 55%

    26 February, Monday

    Time Temperature Precipitation Wind Pressure Humidity
    00:00 +27°C° 0.5 mm 2 mps 716 mmHg 56%
    01:00 +26°C° 0.5 mm 2 mps 716 mmHg 58%
    02:00 +26°C° 0.5 mm 2 mps 715 mmHg 59%
    03:00 +25°C° 0 mm 2 mps 715 mmHg 60%
    04:00 +25°C° 0 mm 1 mps 715 mmHg 60%
    05:00 +25°C° 0 mm 1 mps 715 mmHg 60%
    06:00 +26°C° 0 mm 1 mps 715 mmHg 56%
    07:00 +26°C° 0 mm 1 mps 715 mmHg 52%
    08:00 +27°C° 0 mm 1 mps 715 mmHg 48%
    09:00 +29°C° 0 mm 1 mps 715 mmHg 45%
    10:00 +30°C° 0 mm 1 mps 715 mmHg 42%
    11:00 +31°C° 0 mm 2 mps 715 mmHg 39%
    12:00 +32°C° 0.1 mm 2 mps 714 mmHg 37%
    13:00 +34°C° 0.1 mm 2 mps 713 mmHg 35%
    14:00 +35°C° 0.1 mm 3 mps 712 mmHg 34%
    15:00 +35°C° 0.5 mm 3 mps 712 mmHg 34%
    16:00 +35°C° 0.5 mm 4 mps 711 mmHg 34%
    17:00 +35°C° 0.5 mm 4 mps 711 mmHg 35%
    18:00 +34°C° 0.3 mm 4 mps 711 mmHg 40%
    19:00 +31°C° 0.3 mm 3 mps 711 mmHg 45%
    20:00 +30°C° 0.3 mm 2 mps 712 mmHg 51%
    21:00 +29°C° 0.5 mm 2 mps 712 mmHg 53%
    22:00 +28°C° 0.5 mm 2 mps 712 mmHg 55%
    23:00 +27°C° 0.5 mm 2 mps 712 mmHg 57%

    27 February, Tuesday

    Time Temperature Precipitation Wind Pressure Humidity
    00:00 +27°C° 0.4 mm 2 mps 712 mmHg 56%
    01:00 +27°C° 0.4 mm 2 mps 712 mmHg 55%
    02:00 +26°C° 0.4 mm 2 mps 712 mmHg 55%
    03:00 +26°C° 0.4 mm 1 mps 711 mmHg 54%
    04:00 +25°C° 0.4 mm 1 mps 711 mmHg 53%
    05:00 +25°C° 0.4 mm 1 mps 711 mmHg 52%
    06:00 +26°C° 0.2 mm 1 mps 712 mmHg 48%
    07:00 +27°C° 0.2 mm 1 mps 712 mmHg 43%
    08:00 +28°C° 0.2 mm 1 mps 713 mmHg 39%
    09:00 +29°C° 0.2 mm 1 mps 713 mmHg 36%
    10:00 +30°C° 0.2 mm 1 mps 713 mmHg 34%
    11:00 +31°C° 0.2 mm 1 mps 713 mmHg 31%
    12:00 +32°C° 0 mm 2 mps 713 mmHg 30%
    13:00 +34°C° 0 mm 2 mps 712 mmHg 29%
    14:00 +34°C° 0 mm 3 mps 712 mmHg 28%
    15:00 +34°C° 0.6 mm 3 mps 712 mmHg 31%
    16:00 +34°C° 0.6 mm 4 mps 711 mmHg 33%
    17:00 +34°C° 0.6 mm 5 mps 711 mmHg 36%
    18:00 +32°C° 1.4 mm 4 mps 712 mmHg 42%
    19:00 +30°C° 1.4 mm 3 mps 712 mmHg 47%
    20:00 +28°C° 1.4 mm 2 mps 712 mmHg 53%
    21:00 +27°C° 1.1 mm 2 mps 713 mmHg 54%
    22:00 +27°C° 1.1 mm 2 mps 714 mmHg 55%
    23:00 +26°C° 1.1 mm 2 mps 714 mmHg 56%

    28 February, Wednesday

    Time Temperature Precipitation Wind Pressure Humidity
    00:00 +25°C° 1.2 mm 2 mps 714 mmHg 58%
    01:00 +25°C° 1.2 mm 2 mps 714 mmHg 60%
    02:00 +24°C° 1.2 mm 3 mps 714 mmHg 62%
    03:00 +24°C° 1.3 mm 3 mps 715 mmHg 64%
    04:00 +22°C° 1.3 mm 3 mps 715 mmHg 66%
    05:00 +22°C° 1.3 mm 3 mps 715 mmHg 67%
    06:00 +22°C° 1.3 mm 3 mps 716 mmHg 66%
    07:00 +24°C° 1.3 mm 3 mps 716 mmHg 65%
    08:00 +25°C° 1.3 mm 3 mps 717 mmHg 64%
    09:00 +26°C° 1.8 mm 3 mps 717 mmHg 61%
    10:00 +27°C° 1.8 mm 4 mps 717 mmHg 58%
    11:00 +28°C° 1.8 mm 4 mps 717 mmHg 55%
    12:00 +27°C° 1.5 mm 4 mps 717 mmHg 57%
    13:00 +27°C° 1.5 mm 4 mps 716 mmHg 58%
    14:00 +27°C° 1.5 mm 5 mps 715 mmHg 60%
    15:00 +27°C° 0.7 mm 5 mps 715 mmHg 61%
    16:00 +27°C° 0.8 mm 5 mps 715 mmHg 62%
    17:00 +26°C° 0.7 mm 4 mps 715 mmHg 64%
    18:00 +26°C° 0.8 mm 4 mps 715 mmHg 67%
    19:00 +25°C° 0.8 mm 3 mps 716 mmHg 71%
    20:00 +24°C° 0.8 mm 3 mps 716 mmHg 74%
    21:00 +24°C° 0.8 mm 2 mps 716 mmHg 75%
    22:00 +24°C° 0.8 mm 2 mps 717 mmHg 76%
    23:00 +23°C° 0.8 mm 2 mps 717 mmHg 77%
    Show more